| time (UTC) | temp F | wind direction | speed MPH | gust MPH | rain 1hr in | rain 24hr in | rain mn in | humidity % | barometer mb |
| 20260509164514 | 63 | 212 | 4.0 | 8.0 | 0.00 | 0.00 | 0.00 | 66 | 1010.6 |
| 20260509164012 | 64 | 131 | 3.0 | 8.0 | 0.00 | 0.00 | 0.00 | 66 | 1010.6 |
| 20260509163510 | 63 | 105 | 3.0 | 8.0 | 0.00 | 0.00 | 0.00 | 65 | 1010.8 |
| 20260509163016 | 64 | 206 | 3.0 | 9.0 | 0.00 | 0.00 | 0.00 | 66 | 1010.7 |
| 20260509162509 | 63 | 156 | 3.0 | 11.0 | 0.00 | 0.00 | 0.00 | 65 | 1010.8 |
| 20260509162009 | 63 | 156 | 4.0 | 7.0 | 0.00 | 0.00 | 0.00 | 64 | 1010.8 |
| 20260509161508 | 63 | 147 | 3.0 | 10.0 | 0.00 | 0.00 | 0.00 | 66 | 1010.9 |
| 20260509161010 | 63 | 194 | 4.0 | 11.0 | 0.00 | 0.00 | 0.00 | 67 | 1010.9 |
| 20260509160507 | 63 | 162 | 5.0 | 12.0 | 0.00 | 0.00 | 0.00 | 66 | 1011.0 |
| 20260509160014 | 63 | 86 | 5.0 | 12.0 | 0.00 | 0.00 | 0.00 | 67 | 1010.9 |
| 20260509155506 | 63 | 139 | 3.0 | 8.0 | 0.00 | 0.00 | 0.00 | 66 | 1011.0 |
| 20260509155008 | 63 | 181 | 3.0 | 8.0 | 0.00 | 0.00 | 0.00 | 65 | 1010.9 |
| 20260509154505 | 63 | 191 | 3.0 | 7.0 | 0.00 | 0.00 | 0.00 | 66 | 1010.9 |
| 20260509154005 | 63 | 155 | 3.0 | 7.0 | 0.00 | 0.00 | 0.00 | 66 | 1010.8 |
| 20260509153503 | 63 | 147 | 3.0 | 7.0 | 0.00 | 0.00 | 0.00 | 67 | 1010.9 |
| 20260509153005 | 62 | 127 | 1.0 | 6.0 | 0.00 | 0.00 | 0.00 | 67 | 1010.8 |
| 20260509152502 | 62 | 169 | 3.0 | 5.0 | 0.00 | 0.00 | 0.00 | 68 | 1010.8 |
| 20260509152102 | 61 | 185 | 2.0 | 8.0 | 0.00 | 0.00 | 0.00 | 69 | 1010.8 |
| 20260509151625 | 61 | 145 | 3.0 | 8.0 | 0.00 | 0.00 | 0.00 | 70 | 1010.8 |
| 20260509151058 | 60 | 221 | 1.0 | 5.0 | 0.00 | 0.00 | 0.00 | 72 | 1010.7 |
| 20260509150557 | 60 | 95 | 2.0 | 6.0 | 0.00 | 0.00 | 0.00 | 71 | 1010.6 |
| 20260509150057 | 60 | 130 | 3.0 | 8.0 | 0.00 | 0.00 | 0.00 | 72 | 1010.6 |
| 20260509145556 | 59 | 161 | 4.0 | 8.0 | 0.00 | 0.00 | 0.00 | 72 | 1010.7 |
| 20260509145057 | 59 | 158 | 3.0 | 6.0 | 0.00 | 0.00 | 0.00 | 72 | 1010.8 |
| 20260509144555 | 60 | 165 | 2.0 | 6.0 | 0.00 | 0.00 | 0.00 | 72 | 1010.9 |
| 20260509144055 | 60 | 169 | 1.0 | 6.0 | 0.00 | 0.00 | 0.00 | 73 | 1010.8 |
| 20260509143553 | 59 | 153 | 2.0 | 5.0 | 0.00 | 0.00 | 0.00 | 73 | 1010.7 |
| 20260509143103 | 59 | 155 | 1.0 | 7.0 | 0.00 | 0.00 | 0.00 | 73 | 1010.8 |
| 20260509142553 | 59 | 160 | 2.0 | 7.0 | 0.00 | 0.00 | 0.00 | 72 | 1010.6 |
| 20260509142054 | 59 | 190 | 3.0 | 5.0 | 0.00 | 0.00 | 0.00 | 72 | 1010.7 |
| 20260509141553 | 59 | 130 | 1.0 | 5.0 | 0.00 | 0.00 | 0.00 | 73 | 1010.8 |
| 20260509141052 | 58 | 202 | 0.0 | 4.0 | 0.00 | 0.00 | 0.00 | 75 | 1010.9 |
| 20260509140548 | 58 | 215 | 1.0 | 6.0 | 0.00 | 0.00 | 0.00 | 76 | 1011.0 |
| 20260509140048 | 57 | 144 | 2.0 | 8.0 | 0.00 | 0.00 | 0.00 | 77 | 1011.2 |
| 20260509135552 | 57 | 172 | 3.0 | 8.0 | 0.00 | 0.00 | 0.00 | 76 | 1010.9 |
| 20260509135050 | 57 | 137 | 3.0 | 6.0 | 0.00 | 0.00 | 0.00 | 76 | 1010.8 |
| 20260509134547 | 57 | 153 | 2.0 | 6.0 | 0.00 | 0.00 | 0.00 | 78 | 1010.8 |
| 20260509134047 | 56 | 139 | 2.0 | 9.0 | 0.00 | 0.00 | 0.00 | 78 | 1010.7 |
| 20260509133546 | 57 | 215 | 5.0 | 9.0 | 0.00 | 0.00 | 0.00 | 77 | 1010.7 |
| 20260509133046 | 57 | 166 | 4.0 | 7.0 | 0.00 | 0.00 | 0.00 | 76 | 1010.7 |
| 20260509132544 | 57 | 143 | 3.0 | 6.0 | 0.00 | 0.00 | 0.00 | 75 | 1010.8 |
| 20260509132043 | 57 | 149 | 2.0 | 6.0 | 0.00 | 0.00 | 0.00 | 76 | 1010.8 |
| 20260509131556 | 57 | 210 | 3.0 | 6.0 | 0.00 | 0.00 | 0.00 | 75 | 1010.8 |
| 20260509131042 | 57 | 147 | 2.0 | 5.0 | 0.00 | 0.00 | 0.00 | 75 | 1010.8 |
| 20260509130542 | 57 | 159 | 2.0 | 5.0 | 0.00 | 0.00 | 0.00 | 76 | 1011.0 |
| 20260509125538 | 55 | 203 | 0.0 | 2.0 | 0.00 | 0.00 | 0.00 | 81 | 1011.5 |
| 20260509125038 | 55 | 146 | 1.0 | 2.0 | 0.00 | 0.00 | 0.00 | 81 | 1011.3 |
| 20260509124541 | 54 | 162 | 0.0 | 1.0 | 0.00 | 0.00 | 0.00 | 83 | 1011.5 |
| 20260509124035 | 53 | 10 | 0.0 | 1.0 | 0.00 | 0.00 | 0.00 | 87 | 1011.7 |
| 20260509123534 | 51 | 10 | 0.0 | 1.0 | 0.00 | 0.00 | 0.00 | 89 | 1011.8 |
| 20260509123100 | 50 | 10 | 0.0 | 1.0 | 0.00 | 0.00 | 0.00 | 90 | 1011.9 |
| 20260509122533 | 49 | 10 | 0.0 | 1.0 | 0.00 | 0.00 | 0.00 | 92 | 1012.0 |
| 20260509122033 | 48 | 10 | 0.0 | 1.0 | 0.00 | 0.00 | 0.00 | 93 | 1012.0 |
| 20260509121538 | 48 | 10 | 0.0 | 1.0 | 0.00 | 0.00 | 0.00 | 95 | 1011.8 |
| 20260509121035 | 47 | 10 | 0.0 | 2.0 | 0.00 | 0.00 | 0.00 | 95 | 1012.0 |
| 20260509120535 | 46 | 11 | 0.0 | 2.0 | 0.00 | 0.00 | 0.00 | 95 | 1012.1 |
| 20260509120043 | 45 | 360 | 0.0 | 2.0 | 0.00 | 0.00 | 0.00 | 95 | 1011.9 |
| 20260509115533 | 44 | 1 | 0.0 | 2.0 | 0.00 | 0.00 | 0.00 | 95 | 1012.1 |
| 20260509115033 | 43 | 1 | 1.0 | 2.0 | 0.00 | 0.00 | 0.00 | 95 | 1012.1 |
| 20260509114537 | 43 | 137 | 0.0 | 0.0 | 0.00 | 0.00 | 0.00 | 95 | 1012.0 |
| 20260509114032 | 43 | 137 | 0.0 | 1.0 | 0.00 | 0.00 | 0.00 | 95 | 1012.0 |
| 20260509113532 | 43 | 137 | 0.0 | 1.0 | 0.00 | 0.00 | 0.00 | 95 | 1011.7 |
| 20260509113032 | 43 | 96 | 0.0 | 1.0 | 0.00 | 0.00 | 0.00 | 95 | 1011.7 |
| 20260509112532 | 43 | 96 | 0.0 | 2.0 | 0.00 | 0.00 | 0.00 | 95 | 1011.7 |
| 20260509112032 | 43 | 94 | 0.0 | 2.0 | 0.00 | 0.00 | 0.00 | 95 | 1011.7 |
| 20260509111532 | 43 | 7 | 0.0 | 1.0 | 0.00 | 0.00 | 0.00 | 95 | 1011.6 |
| 20260509111032 | 43 | 7 | 0.0 | 1.0 | 0.00 | 0.00 | 0.00 | 95 | 1011.7 |
| 20260509110531 | 43 | 8 | 0.0 | 1.0 | 0.00 | 0.00 | 0.00 | 95 | 1011.7 |
| 20260509110031 | 43 | 7 | 0.0 | 1.0 | 0.00 | 0.00 | 0.00 | 95 | 1011.6 |
| 20260509105530 | 42 | 7 | 0.0 | 1.0 | 0.00 | 0.00 | 0.00 | 94 | 1011.5 |
| 20260509105029 | 43 | 7 | 0.0 | 2.0 | 0.00 | 0.00 | 0.00 | 94 | 1011.5 |
| 20260509104529 | 43 | 7 | 0.0 | 2.0 | 0.00 | 0.00 | 0.00 | 95 | 1011.3 |
| 20260509104028 | 43 | 99 | 0.0 | 1.0 | 0.00 | 0.00 | 0.00 | 95 | 1011.4 |
| 20260509103528 | 43 | 99 | 0.0 | 0.0 | 0.00 | 0.00 | 0.00 | 95 | 1011.3 |
| 20260509103028 | 43 | 99 | 0.0 | 1.0 | 0.00 | 0.00 | 0.00 | 95 | 1011.3 |
| 20260509102528 | 43 | 99 | 0.0 | 1.0 | 0.00 | 0.00 | 0.00 | 95 | 1011.2 |
| 20260509102028 | 43 | 99 | 0.0 | 1.0 | 0.00 | 0.00 | 0.00 | 95 | 1011.3 |
| 20260509101535 | 43 | 99 | 0.0 | 1.0 | 0.00 | 0.00 | 0.00 | 94 | 1011.2 |
| 20260509101028 | 43 | 99 | 0.0 | 1.0 | 0.00 | 0.00 | 0.00 | 94 | 1011.2 |
| 20260509100526 | 43 | 99 | 0.0 | 1.0 | 0.00 | 0.00 | 0.00 | 94 | 1011.1 |
| 20260509100026 | 43 | 98 | 0.0 | 1.0 | 0.00 | 0.00 | 0.00 | 93 | 1011.1 |
| 20260509095525 | 44 | 99 | 0.0 | 1.0 | 0.00 | 0.00 | 0.00 | 93 | 1011.0 |
| 20260509095023 | 44 | 99 | 0.0 | 1.0 | 0.00 | 0.00 | 0.00 | 93 | 1011.1 |
| 20260509094530 | 45 | 99 | 0.0 | 1.0 | 0.00 | 0.00 | 0.00 | 92 | 1011.0 |
| 20260509094020 | 45 | 98 | 0.0 | 1.0 | 0.00 | 0.00 | 0.00 | 94 | 1011.0 |
| 20260509093520 | 45 | 11 | 0.0 | 1.0 | 0.00 | 0.00 | 0.00 | 93 | 1011.0 |
| 20260509093020 | 45 | 11 | 0.0 | 1.0 | 0.00 | 0.00 | 0.00 | 93 | 1011.0 |
| 20260509092518 | 46 | 11 | 0.0 | 1.0 | 0.00 | 0.00 | 0.00 | 93 | 1011.0 |
| 20260509092018 | 46 | 11 | 0.0 | 1.0 | 0.00 | 0.00 | 0.00 | 93 | 1011.1 |
| 20260509091517 | 46 | 347 | 1.0 | 1.0 | 0.00 | 0.00 | 0.00 | 92 | 1011.2 |
| 20260509091016 | 46 | 347 | 0.0 | 1.0 | 0.00 | 0.00 | 0.00 | 93 | 1011.3 |
| 20260509090518 | 46 | 347 | 0.0 | 2.0 | 0.00 | 0.00 | 0.00 | 92 | 1011.3 |
| 20260509090016 | 46 | 347 | 0.0 | 2.0 | 0.00 | 0.00 | 0.00 | 92 | 1011.3 |
| 20260509085514 | 46 | 347 | 1.0 | 2.0 | 0.00 | 0.00 | 0.00 | 92 | 1011.3 |
| 20260509085013 | 46 | 98 | 0.0 | 1.0 | 0.00 | 0.00 | 0.00 | 91 | 1011.2 |
| 20260509084512 | 47 | 98 | 0.0 | 1.0 | 0.00 | 0.00 | 0.00 | 91 | 1011.3 |
| 20260509084014 | 47 | 98 | 0.0 | 2.0 | 0.00 | 0.00 | 0.00 | 90 | 1011.4 |
| 20260509083510 | 47 | 122 | 0.0 | 2.0 | 0.00 | 0.00 | 0.00 | 91 | 1011.2 |
| 20260509083009 | 47 | 143 | 0.0 | 0.0 | 0.00 | 0.00 | 0.00 | 90 | 1011.3 |
| 20260509082514 | 48 | 158 | 0.0 | 1.0 | 0.00 | 0.00 | 0.00 | 89 | 1011.3 |
| 20260509082007 | 48 | 158 | 0.0 | 3.0 | 0.00 | 0.00 | 0.00 | 89 | 1011.4 |
| 20260509081507 | 48 | 174 | 0.0 | 3.0 | 0.00 | 0.00 | 0.00 | 89 | 1011.4 |
| 20260509081007 | 49 | 254 | 0.0 | 4.0 | 0.00 | 0.00 | 0.00 | 89 | 1011.5 |
| 20260509080506 | 49 | 126 | 1.0 | 4.0 | 0.00 | 0.00 | 0.00 | 89 | 1011.5 |
| 20260509080006 | 48 | 147 | 2.0 | 4.0 | 0.00 | 0.00 | 0.00 | 89 | 1011.5 |
| 20260509075505 | 48 | 159 | 1.0 | 4.0 | 0.00 | 0.00 | 0.00 | 89 | 1011.6 |
| 20260509075006 | 48 | 165 | 2.0 | 4.0 | 0.00 | 0.00 | 0.00 | 90 | 1011.6 |
| 20260509074503 | 48 | 143 | 0.0 | 2.0 | 0.00 | 0.00 | 0.00 | 89 | 1011.8 |
| 20260509074002 | 48 | 138 | 0.0 | 1.0 | 0.00 | 0.00 | 0.00 | 88 | 1011.8 |
| 20260509073501 | 48 | 138 | 0.0 | 1.0 | 0.00 | 0.00 | 0.00 | 88 | 1011.8 |
| 20260509073001 | 49 | 138 | 0.0 | 1.0 | 0.00 | 0.00 | 0.00 | 87 | 1011.8 |
| 20260509072600 | 49 | 138 | 0.0 | 1.0 | 0.00 | 0.00 | 0.00 | 87 | 1011.9 |
| 20260509072100 | 49 | 138 | 0.0 | 1.0 | 0.00 | 0.00 | 0.00 | 86 | 1011.9 |
| 20260509071603 | 49 | 138 | 0.0 | 1.0 | 0.00 | 0.00 | 0.00 | 86 | 1011.9 |
| 20260509071056 | 50 | 138 | 0.0 | 2.0 | 0.00 | 0.00 | 0.00 | 84 | 1012.1 |
| 20260509070556 | 50 | 138 | 0.0 | 3.0 | 0.00 | 0.00 | 0.00 | 85 | 1012.1 |
| 20260509070056 | 50 | 143 | 1.0 | 6.0 | 0.00 | 0.00 | 0.00 | 85 | 1012.1 |
| 20260509065555 | 50 | 182 | 2.0 | 6.0 | 0.00 | 0.00 | 0.00 | 85 | 1012.1 |
| 20260509065054 | 50 | 210 | 0.0 | 3.0 | 0.00 | 0.00 | 0.00 | 85 | 1012.0 |
| 20260509064558 | 50 | 152 | 0.0 | 2.0 | 0.00 | 0.00 | 0.00 | 84 | 1012.0 |
| 20260509064053 | 51 | 136 | 1.0 | 7.0 | 0.00 | 0.00 | 0.00 | 84 | 1012.1 |
| 20260509063551 | 51 | 135 | 2.0 | 7.0 | 0.00 | 0.00 | 0.00 | 84 | 1012.2 |
| 20260509063050 | 51 | 163 | 1.0 | 3.0 | 0.00 | 0.00 | 0.00 | 83 | 1012.4 |
| 20260509062552 | 51 | 145 | 1.0 | 4.0 | 0.00 | 0.00 | 0.00 | 83 | 1012.6 |
| 20260509062049 | 51 | 140 | 2.0 | 4.0 | 0.00 | 0.00 | 0.00 | 83 | 1012.6 |
| 20260509061601 | 51 | 191 | 2.0 | 6.0 | 0.00 | 0.00 | 0.00 | 83 | 1012.8 |
| 20260509061046 | 51 | 210 | 2.0 | 6.0 | 0.00 | 0.00 | 0.00 | 82 | 1012.9 |
| 20260509060546 | 52 | 136 | 1.0 | 5.0 | 0.00 | 0.00 | 0.00 | 82 | 1013.0 |
| 20260509060046 | 52 | 160 | 1.0 | 7.0 | 0.00 | 0.00 | 0.00 | 82 | 1013.1 |
| 20260509055546 | 52 | 150 | 2.0 | 7.0 | 0.00 | 0.00 | 0.00 | 82 | 1013.2 |
| 20260509055045 | 52 | 226 | 3.0 | 7.0 | 0.00 | 0.00 | 0.00 | 82 | 1013.2 |
| 20260509054601 | 52 | 163 | 3.0 | 7.0 | 0.00 | 0.00 | 0.00 | 82 | 1013.2 |
| 20260509054043 | 52 | 130 | 2.0 | 7.0 | 0.00 | 0.00 | 0.00 | 82 | 1013.3 |
| 20260509053545 | 52 | 154 | 2.0 | 7.0 | 0.00 | 0.00 | 0.00 | 82 | 1013.3 |
| 20260509053046 | 52 | 139 | 2.0 | 10.0 | 0.00 | 0.00 | 0.00 | 82 | 1013.4 |
| 20260509052542 | 52 | 216 | 2.0 | 8.0 | 0.00 | 0.00 | 0.00 | 82 | 1013.5 |
| 20260509052040 | 52 | 179 | 2.0 | 8.0 | 0.00 | 0.00 | 0.00 | 82 | 1013.6 |
| 20260509051539 | 52 | 195 | 3.0 | 10.0 | 0.00 | 0.00 | 0.00 | 82 | 1013.6 |
| 20260509051040 | 52 | 153 | 4.0 | 14.0 | 0.00 | 0.00 | 0.00 | 82 | 1013.7 |
| 20260509050540 | 52 | 159 | 4.0 | 14.0 | 0.00 | 0.00 | 0.00 | 82 | 1013.9 |
| 20260509050039 | 51 | 152 | 1.0 | 8.0 | 0.00 | 0.00 | 0.00 | 82 | 1013.9 |
| 20260509045538 | 51 | 173 | 1.0 | 6.0 | 0.00 | 0.00 | 0.00 | 82 | 1013.9 |
| 20260509045038 | 51 | 162 | 1.0 | 6.0 | 0.00 | 0.00 | 0.00 | 82 | 1013.7 |
| 20260509044536 | 51 | 153 | 0.0 | 6.0 | 0.00 | 0.00 | 0.00 | 81 | 1013.6 |
| 20260509044036 | 51 | 173 | 1.0 | 6.0 | 0.00 | 0.00 | 0.00 | 81 | 1013.7 |
| 20260509043537 | 51 | 150 | 3.0 | 7.0 | 0.00 | 0.00 | 0.00 | 81 | 1013.6 |
| 20260509043035 | 51 | 127 | 2.0 | 6.0 | 0.00 | 0.00 | 0.00 | 81 | 1013.7 |
| 20260509042534 | 51 | 141 | 1.0 | 4.0 | 0.00 | 0.00 | 0.00 | 80 | 1013.8 |
| 20260509042033 | 52 | 170 | 1.0 | 6.0 | 0.00 | 0.00 | 0.00 | 80 | 1013.9 |
| 20260509041532 | 52 | 208 | 1.0 | 6.0 | 0.00 | 0.00 | 0.00 | 80 | 1014.0 |
| 20260509041033 | 52 | 157 | 1.0 | 4.0 | 0.00 | 0.00 | 0.00 | 80 | 1013.9 |
| 20260509040530 | 52 | 132 | 1.0 | 4.0 | 0.00 | 0.00 | 0.00 | 79 | 1013.9 |
| 20260509040037 | 52 | 171 | 1.0 | 6.0 | 0.00 | 0.00 | 0.00 | 79 | 1014.0 |
| 20260509035530 | 52 | 160 | 1.0 | 6.0 | 0.00 | 0.00 | 0.00 | 79 | 1014.1 |
| 20260509035029 | 52 | 173 | 3.0 | 7.0 | 0.00 | 0.00 | 0.00 | 78 | 1014.1 |
| 20260509034530 | 52 | 172 | 2.0 | 7.0 | 0.00 | 0.00 | 0.00 | 78 | 1014.1 |
| 20260509034029 | 52 | 169 | 1.0 | 6.0 | 0.00 | 0.00 | 0.00 | 78 | 1014.2 |
| 20260509033530 | 52 | 122 | 2.0 | 7.0 | 0.00 | 0.00 | 0.00 | 78 | 1014.1 |
| 20260509033029 | 52 | 139 | 2.0 | 7.0 | 0.00 | 0.00 | 0.00 | 78 | 1014.1 |
| 20260509032528 | 52 | 74 | 1.0 | 5.0 | 0.00 | 0.00 | 0.00 | 77 | 1014.1 |
| 20260509032029 | 52 | 152 | 1.0 | 5.0 | 0.00 | 0.00 | 0.00 | 77 | 1014.1 |
| 20260509031529 | 52 | 138 | 1.0 | 7.0 | 0.00 | 0.00 | 0.00 | 77 | 1014.1 |
| 20260509031028 | 52 | 211 | 2.0 | 8.0 | 0.00 | 0.00 | 0.00 | 76 | 1014.2 |
| 20260509030528 | 52 | 145 | 2.0 | 9.0 | 0.00 | 0.00 | 0.00 | 76 | 1014.2 |
| 20260509030028 | 52 | 106 | 4.0 | 9.0 | 0.00 | 0.00 | 0.00 | 77 | 1014.2 |
| 20260509025527 | 52 | 229 | 2.0 | 5.0 | 0.00 | 0.00 | 0.00 | 76 | 1014.4 |
| 20260509025027 | 52 | 180 | 2.0 | 6.0 | 0.00 | 0.00 | 0.00 | 76 | 1014.4 |
| 20260509024526 | 52 | 140 | 1.0 | 6.0 | 0.00 | 0.00 | 0.00 | 76 | 1014.5 |
| 20260509024029 | 52 | 157 | 0.0 | 3.0 | 0.00 | 0.00 | 0.00 | 76 | 1014.5 |
| 20260509023527 | 53 | 152 | 0.0 | 6.0 | 0.00 | 0.00 | 0.00 | 75 | 1014.4 |
| 20260509023026 | 53 | 178 | 2.0 | 6.0 | 0.00 | 0.00 | 0.00 | 75 | 1014.5 |
| 20260509022530 | 53 | 157 | 2.0 | 6.0 | 0.00 | 0.00 | 0.00 | 75 | 1014.4 |
| 20260509022026 | 53 | 148 | 2.0 | 8.0 | 0.00 | 0.00 | 0.00 | 74 | 1014.4 |
| 20260509021526 | 53 | 129 | 3.0 | 8.0 | 0.00 | 0.00 | 0.00 | 74 | 1014.4 |
| 20260509021027 | 53 | 186 | 1.0 | 7.0 | 0.00 | 0.00 | 0.00 | 74 | 1014.3 |
| 20260509020526 | 53 | 173 | 2.0 | 7.0 | 0.00 | 0.00 | 0.00 | 74 | 1014.2 |
| 20260509020025 | 53 | 150 | 2.0 | 8.0 | 0.00 | 0.00 | 0.00 | 74 | 1014.2 |
| 20260509015525 | 53 | 149 | 1.0 | 8.0 | 0.00 | 0.00 | 0.00 | 73 | 1014.3 |
| 20260509015024 | 53 | 193 | 3.0 | 8.0 | 0.00 | 0.00 | 0.00 | 73 | 1014.3 |
| 20260509014535 | 53 | 122 | 3.0 | 5.0 | 0.00 | 0.00 | 0.00 | 73 | 1014.3 |
| 20260509014024 | 53 | 158 | 1.0 | 9.0 | 0.00 | 0.00 | 0.00 | 72 | 1014.4 |
| 20260509013524 | 53 | 193 | 2.0 | 9.0 | 0.00 | 0.00 | 0.00 | 72 | 1014.3 |
| 20260509013024 | 53 | 141 | 2.0 | 6.0 | 0.00 | 0.00 | 0.00 | 72 | 1014.3 |
| 20260509012523 | 53 | 172 | 2.0 | 6.0 | 0.00 | 0.00 | 0.00 | 72 | 1014.2 |
| 20260509012023 | 53 | 209 | 0.0 | 7.0 | 0.00 | 0.00 | 0.00 | 71 | 1014.3 |
| 20260509011525 | 54 | 181 | 1.0 | 9.0 | 0.00 | 0.00 | 0.00 | 71 | 1014.4 |
| 20260509011023 | 54 | 139 | 3.0 | 9.0 | 0.00 | 0.00 | 0.00 | 71 | 1014.3 |
| 20260509010522 | 54 | 127 | 1.0 | 4.0 | 0.00 | 0.00 | 0.00 | 70 | 1014.3 |
| 20260509010022 | 54 | 153 | 1.0 | 7.0 | 0.00 | 0.00 | 0.00 | 69 | 1014.2 |
| 20260509005522 | 54 | 141 | 3.0 | 7.0 | 0.00 | 0.00 | 0.00 | 69 | 1014.4 |
| 20260509005021 | 54 | 155 | 1.0 | 6.0 | 0.00 | 0.00 | 0.00 | 68 | 1014.2 |
| 20260509004520 | 54 | 174 | 2.0 | 7.0 | 0.00 | 0.00 | 0.00 | 67 | 1014.3 |
| 20260509004020 | 55 | 134 | 3.0 | 8.0 | 0.00 | 0.00 | 0.00 | 67 | 1014.0 |
| 20260509003520 | 55 | 162 | 4.0 | 8.0 | 0.00 | 0.00 | 0.00 | 66 | 1014.1 |
| 20260509003020 | 55 | 136 | 2.0 | 5.0 | 0.00 | 0.00 | 0.00 | 65 | 1014.2 |
| 20260509002519 | 55 | 236 | 2.0 | 5.0 | 0.00 | 0.00 | 0.00 | 64 | 1014.1 |
| 20260509002020 | 56 | 146 | 0.0 | 6.0 | 0.00 | 0.00 | 0.00 | 63 | 1014.0 |
| 20260509001525 | 56 | 169 | 3.0 | 6.0 | 0.00 | 0.00 | 0.00 | 62 | 1014.0 |
| 20260509001020 | 56 | 207 | 1.0 | 5.0 | 0.00 | 0.00 | 0.00 | 62 | 1014.0 |
| 20260509000520 | 57 | 177 | 1.0 | 9.0 | 0.00 | 0.00 | 0.00 | 61 | 1013.9 |
| 20260509000019 | 57 | 177 | 4.0 | 9.0 | 0.00 | 0.00 | 0.00 | 60 | 1013.9 |
| 20260508235519 | 57 | 172 | 2.0 | 9.0 | 0.00 | 0.00 | 0.00 | 59 | 1013.9 |
| 20260508235019 | 57 | 149 | 2.0 | 8.0 | 0.00 | 0.00 | 0.00 | 59 | 1013.7 |
| 20260508234518 | 57 | 146 | 2.0 | 9.0 | 0.00 | 0.00 | 0.00 | 58 | 1013.7 |
| 20260508234018 | 58 | 120 | 3.0 | 11.0 | 0.00 | 0.00 | 0.00 | 58 | 1013.9 |
| 20260508233519 | 58 | 193 | 4.0 | 11.0 | 0.00 | 0.00 | 0.00 | 57 | 1013.8 |
| 20260508233018 | 58 | 203 | 4.0 | 8.0 | 0.00 | 0.00 | 0.00 | 57 | 1013.8 |
| 20260508232517 | 58 | 173 | 1.0 | 12.0 | 0.00 | 0.00 | 0.00 | 57 | 1013.8 |
| 20260508232017 | 58 | 189 | 4.0 | 12.0 | 0.00 | 0.00 | 0.00 | 56 | 1013.8 |
| 20260508231517 | 58 | 115 | 4.0 | 8.0 | 0.00 | 0.00 | 0.00 | 55 | 1013.6 |
| 20260508231017 | 58 | 164 | 2.0 | 7.0 | 0.00 | 0.00 | 0.00 | 55 | 1013.9 |
| 20260508230517 | 59 | 189 | 3.0 | 11.0 | 0.00 | 0.00 | 0.00 | 54 | 1014.0 |
| 20260508230017 | 59 | 204 | 3.0 | 11.0 | 0.00 | 0.00 | 0.00 | 54 | 1014.0 |
| 20260508225516 | 59 | 136 | 3.0 | 11.0 | 0.00 | 0.00 | 0.00 | 53 | 1014.0 |
| 20260508225019 | 60 | 200 | 4.0 | 11.0 | 0.00 | 0.00 | 0.00 | 52 | 1014.0 |
| 20260508224515 | 60 | 159 | 2.0 | 9.0 | 0.00 | 0.00 | 0.00 | 53 | 1013.9 |
| 20260508224015 | 60 | 155 | 5.0 | 9.0 | 0.00 | 0.00 | 0.00 | 51 | 1014.0 |
| 20260508223514 | 60 | 119 | 2.0 | 8.0 | 0.00 | 0.00 | 0.00 | 52 | 1013.9 |
| 20260508223015 | 60 | 146 | 3.0 | 9.0 | 0.00 | 0.00 | 0.00 | 50 | 1013.8 |
| 20260508222514 | 60 | 155 | 4.0 | 8.0 | 0.00 | 0.00 | 0.00 | 50 | 1014.0 |
| 20260508222017 | 60 | 201 | 2.0 | 12.0 | 0.00 | 0.00 | 0.00 | 49 | 1013.9 |
| 20260508221515 | 61 | 141 | 2.0 | 7.0 | 0.00 | 0.00 | 0.00 | 48 | 1013.7 |
| 20260508221014 | 61 | 183 | 2.0 | 9.0 | 0.00 | 0.00 | 0.00 | 47 | 1013.8 |
| 20260508220514 | 60 | 158 | 4.0 | 9.0 | 0.00 | 0.00 | 0.00 | 46 | 1013.6 |
| 20260508220045 | 61 | 205 | 5.0 | 10.0 | 0.00 | 0.00 | 0.00 | 45 | 1013.5 |
| 20260508215513 | 61 | 148 | 4.0 | 10.0 | 0.00 | 0.00 | 0.00 | 43 | 1013.4 |
| 20260508215013 | 61 | 189 | 2.0 | 12.0 | 0.00 | 0.00 | 0.00 | 45 | 1013.5 |
| 20260508214514 | 61 | 207 | 4.0 | 12.0 | 0.00 | 0.00 | 0.00 | 43 | 1013.5 |
| 20260508214012 | 61 | 145 | 5.0 | 14.0 | 0.00 | 0.00 | 0.00 | 42 | 1013.5 |
| 20260508213512 | 61 | 84 | 3.0 | 14.0 | 0.00 | 0.00 | 0.00 | 42 | 1013.5 |
| 20260508213012 | 61 | 6 | 4.0 | 9.0 | 0.00 | 0.00 | 0.00 | 40 | 1013.5 |
| 20260508212512 | 61 | 206 | 3.0 | 10.0 | 0.00 | 0.00 | 0.00 | 40 | 1013.6 |
| 20260508212011 | 61 | 146 | 5.0 | 11.0 | 0.00 | 0.00 | 0.00 | 38 | 1013.7 |
| 20260508211511 | 61 | 151 | 4.0 | 8.0 | 0.00 | 0.00 | 0.00 | 37 | 1013.5 |
| 20260508211011 | 62 | 151 | 3.0 | 7.0 | 0.00 | 0.00 | 0.00 | 37 | 1013.4 |
| 20260508210511 | 61 | 146 | 2.0 | 10.0 | 0.00 | 0.00 | 0.00 | 38 | 1013.5 |
| 20260508210011 | 61 | 110 | 2.0 | 9.0 | 0.00 | 0.00 | 0.00 | 37 | 1013.5 |
| 20260508205512 | 61 | 181 | 4.0 | 12.0 | 0.00 | 0.00 | 0.00 | 36 | 1013.8 |
| 20260508205011 | 61 | 131 | 5.0 | 12.0 | 0.00 | 0.00 | 0.00 | 36 | 1013.9 |
| 20260508204510 | 62 | 167 | 2.0 | 10.0 | 0.00 | 0.00 | 0.00 | 37 | 1013.9 |
| 20260508204014 | 62 | 160 | 4.0 | 10.0 | 0.00 | 0.00 | 0.00 | 35 | 1013.9 |
| 20260508203508 | 62 | 156 | 3.0 | 11.0 | 0.00 | 0.00 | 0.00 | 35 | 1014.0 |
| 20260508203008 | 62 | 154 | 1.0 | 12.0 | 0.00 | 0.00 | 0.00 | 36 | 1014.3 |
| 20260508202508 | 62 | 149 | 2.0 | 9.0 | 0.00 | 0.00 | 0.00 | 36 | 1014.5 |
| 20260508202008 | 61 | 143 | 2.0 | 9.0 | 0.00 | 0.00 | 0.00 | 35 | 1014.5 |
| 20260508201507 | 62 | 153 | 4.0 | 14.0 | 0.00 | 0.00 | 0.00 | 34 | 1014.7 |
| 20260508201007 | 63 | 206 | 7.0 | 14.0 | 0.00 | 0.00 | 0.00 | 32 | 1014.7 |
| 20260508200507 | 63 | 186 | 6.0 | 11.0 | 0.00 | 0.00 | 0.00 | 33 | 1014.7 |
| 20260508200006 | 62 | 206 | 5.0 | 9.0 | 0.00 | 0.00 | 0.00 | 32 | 1014.7 |
| 20260508195506 | 62 | 184 | 3.0 | 10.0 | 0.00 | 0.00 | 0.00 | 33 | 1014.7 |
| 20260508195006 | 61 | 79 | 3.0 | 17.0 | 0.00 | 0.00 | 0.00 | 33 | 1014.8 |
| 20260508194506 | 62 | 129 | 7.0 | 17.0 | 0.00 | 0.00 | 0.00 | 33 | 1014.7 |
| 20260508194006 | 62 | 79 | 5.0 | 14.0 | 0.00 | 0.00 | 0.00 | 33 | 1014.7 |
| 20260508193505 | 62 | 131 | 5.0 | 8.0 | 0.00 | 0.00 | 0.00 | 34 | 1014.8 |
| 20260508193005 | 62 | 158 | 2.0 | 6.0 | 0.00 | 0.00 | 0.00 | 34 | 1014.8 |
| 20260508192505 | 63 | 127 | 4.0 | 7.0 | 0.00 | 0.00 | 0.00 | 32 | 1014.9 |
| 20260508192004 | 62 | 99 | 2.0 | 8.0 | 0.00 | 0.00 | 0.00 | 35 | 1014.9 |
| 20260508191506 | 62 | 137 | 3.0 | 11.0 | 0.00 | 0.00 | 0.00 | 33 | 1015.0 |
| 20260508191004 | 62 | 145 | 4.0 | 11.0 | 0.00 | 0.00 | 0.00 | 31 | 1015.2 |
| 20260508190504 | 62 | 143 | 4.0 | 9.0 | 0.00 | 0.00 | 0.00 | 31 | 1015.3 |
| 20260508190003 | 62 | 210 | 5.0 | 9.0 | 0.00 | 0.00 | 0.00 | 29 | 1015.4 |
| 20260508185501 | 61 | 207 | 5.0 | 15.0 | 0.00 | 0.00 | 0.00 | 28 | 1015.5 |
| 20260508185002 | 61 | 150 | 6.0 | 15.0 | 0.00 | 0.00 | 0.00 | 28 | 1015.5 |
| 20260508184600 | 61 | 271 | 4.0 | 11.0 | 0.00 | 0.00 | 0.00 | 31 | 1015.4 |
| 20260508184059 | 61 | 156 | 4.0 | 10.0 | 0.00 | 0.00 | 0.00 | 30 | 1015.5 |
| 20260508183559 | 61 | 70 | 3.0 | 12.0 | 0.00 | 0.00 | 0.00 | 32 | 1015.5 |
| 20260508183059 | 61 | 164 | 5.0 | 12.0 | 0.00 | 0.00 | 0.00 | 33 | 1015.5 |
| 20260508182558 | 61 | 172 | 3.0 | 7.0 | 0.00 | 0.00 | 0.00 | 33 | 1015.5 |
| 20260508182058 | 61 | 131 | 4.0 | 11.0 | 0.00 | 0.00 | 0.00 | 31 | 1015.6 |
| 20260508181609 | 61 | 197 | 5.0 | 11.0 | 0.00 | 0.00 | 0.00 | 32 | 1015.5 |
| 20260508181058 | 61 | 203 | 4.0 | 12.0 | 0.00 | 0.00 | 0.00 | 33 | 1015.6 |
| 20260508180558 | 61 | 190 | 5.0 | 12.0 | 0.00 | 0.00 | 0.00 | 32 | 1015.6 |
| 20260508180107 | 61 | 163 | 3.0 | 11.0 | 0.00 | 0.00 | 0.00 | 31 | 1015.7 |
| 20260508175558 | 61 | 174 | 4.0 | 11.0 | 0.00 | 0.00 | 0.00 | 32 | 1015.9 |
| 20260508175057 | 61 | 165 | 4.0 | 12.0 | 0.00 | 0.00 | 0.00 | 33 | 1015.9 |
| 20260508174614 | 60 | 163 | 2.0 | 8.0 | 0.00 | 0.00 | 0.00 | 33 | 1016.1 |
| 20260508174058 | 60 | 149 | 4.0 | 11.0 | 0.00 | 0.00 | 0.00 | 32 | 1016.3 |
| 20260508173557 | 61 | 155 | 2.0 | 9.0 | 0.00 | 0.00 | 0.00 | 33 | 1016.3 |
| 20260508173100 | 61 | 161 | 3.0 | 9.0 | 0.00 | 0.00 | 0.00 | 34 | 1016.3 |
| 20260508172555 | 60 | 204 | 4.0 | 9.0 | 0.00 | 0.00 | 0.00 | 33 | 1016.4 |
| 20260508172055 | 60 | 153 | 5.0 | 9.0 | 0.00 | 0.00 | 0.00 | 34 | 1016.3 |
| 20260508171555 | 60 | 148 | 2.0 | 9.0 | 0.00 | 0.00 | 0.00 | 33 | 1016.4 |
| 20260508171059 | 61 | 144 | 4.0 | 9.0 | 0.00 | 0.00 | 0.00 | 32 | 1016.5 |
| 20260508170555 | 61 | 178 | 2.0 | 7.0 | 0.00 | 0.00 | 0.00 | 32 | 1016.6 |
| 20260508170058 | 60 | 231 | 0.0 | 7.0 | 0.00 | 0.00 | 0.00 | 34 | 1016.7 |
| 20260508165553 | 61 | 134 | 3.0 | 10.0 | 0.00 | 0.00 | 0.00 | 33 | 1016.7 |
| 20260508165053 | 60 | 154 | 1.0 | 10.0 | 0.00 | 0.00 | 0.00 | 35 | 1016.7 |